{"data":{"norad_id":66184,"epoch":"2026-09-20T17:00:36.971136Z","epoch_age_seconds":82381,"freshness":"FRESH","line1":"1 66184U 25243H   26263.70876124  .00020588  00000+0  61865-3 0  9996","line2":"2 66184  53.1575  56.4635 0001536  88.7378 271.3801 15.34407151 50556","mean_motion":15.34407151,"eccentricity":0.0001536,"inclination_deg":53.1575,"raan_deg":56.4635,"arg_perigee_deg":88.7378,"mean_anomaly_deg":271.3801,"bstar":0.00061865,"rev_number":5055,"period_min":93.847320710251,"perigee_km":461.63123621439,"apogee_km":463.7327358069,"semimajor_km":6840.8189860106,"source":"CELESTRAK","updated_at":"2026-09-21T09:00:35.834712Z"}}